Year,Month,Day,Hour,Minute,Value (Times are PST for temperature in C)
2023,05,14,00,00,16.70
2023,05,14,00,01,16.70
2023,05,14,00,02,16.70
2023,05,14,00,03,16.70
2023,05,14,00,04,16.60
2023,05,14,00,05,16.60
2023,05,14,00,06,16.60
2023,05,14,00,07,16.60
2023,05,14,00,08,16.50
2023,05,14,00,09,16.50
2023,05,14,00,10,16.50
2023,05,14,00,11,16.40
2023,05,14,00,12,16.40
2023,05,14,00,13,16.40
2023,05,14,00,14,16.40
2023,05,14,00,15,16.40
2023,05,14,00,16,16.40
2023,05,14,00,17,16.40
2023,05,14,00,18,16.40
2023,05,14,00,19,16.40
2023,05,14,00,20,16.40
2023,05,14,00,21,16.40
2023,05,14,00,22,16.40
2023,05,14,00,23,16.50
2023,05,14,00,24,16.50
2023,05,14,00,25,16.50
2023,05,14,00,26,16.50
2023,05,14,00,27,16.50
2023,05,14,00,28,16.50
2023,05,14,00,29,16.50
2023,05,14,00,30,16.50
2023,05,14,00,31,16.60
2023,05,14,00,32,16.60
2023,05,14,00,33,16.60
2023,05,14,00,34,16.60
2023,05,14,00,35,16.60
2023,05,14,00,36,16.60
2023,05,14,00,37,16.60
2023,05,14,00,38,16.60
2023,05,14,00,39,16.60
2023,05,14,00,40,16.60
2023,05,14,00,41,16.60
2023,05,14,00,42,16.60
2023,05,14,00,43,16.60
2023,05,14,00,44,16.50
2023,05,14,00,45,16.50
2023,05,14,00,46,16.50
2023,05,14,00,47,16.50
2023,05,14,00,48,16.50
2023,05,14,00,49,16.40
2023,05,14,00,50,16.40
2023,05,14,00,51,16.40
2023,05,14,00,52,16.40
2023,05,14,00,53,16.40
2023,05,14,00,54,16.30
2023,05,14,00,55,16.30
2023,05,14,00,56,16.30
2023,05,14,00,57,16.30
2023,05,14,00,58,16.30
2023,05,14,00,59,16.30
2023,05,14,01,00,16.40
2023,05,14,01,01,16.40
2023,05,14,01,02,16.40
2023,05,14,01,03,16.40
2023,05,14,01,04,16.40
2023,05,14,01,05,16.30
2023,05,14,01,06,16.40
2023,05,14,01,07,16.40
2023,05,14,01,08,16.40
2023,05,14,01,09,16.40
2023,05,14,01,10,16.40
2023,05,14,01,11,16.30
2023,05,14,01,12,16.30
2023,05,14,01,13,16.30
2023,05,14,01,14,16.30
2023,05,14,01,15,16.30
2023,05,14,01,16,16.30
2023,05,14,01,17,16.30
2023,05,14,01,18,16.30
2023,05,14,01,19,16.30
2023,05,14,01,20,16.30
2023,05,14,01,21,16.30
2023,05,14,01,22,16.30
2023,05,14,01,23,16.20
2023,05,14,01,24,16.20
2023,05,14,01,25,16.20
2023,05,14,01,26,16.10
2023,05,14,01,27,16.10
2023,05,14,01,28,16.10
2023,05,14,01,29,16.10
2023,05,14,01,30,16.10
2023,05,14,01,31,16.00
2023,05,14,01,32,16.00
2023,05,14,01,33,16.00
2023,05,14,01,34,16.00
2023,05,14,01,35,16.00
2023,05,14,01,36,16.00
2023,05,14,01,37,16.00
2023,05,14,01,38,15.90
2023,05,14,01,39,16.00
2023,05,14,01,40,15.90
2023,05,14,01,41,15.90
2023,05,14,01,42,15.90
2023,05,14,01,43,15.90
2023,05,14,01,44,15.90
2023,05,14,01,45,15.90
2023,05,14,01,46,15.80
2023,05,14,01,47,15.80
2023,05,14,01,48,15.80
2023,05,14,01,49,15.80
2023,05,14,01,50,15.80
2023,05,14,01,51,15.80
2023,05,14,01,52,15.80
2023,05,14,01,53,15.80
2023,05,14,01,54,15.80
2023,05,14,01,55,15.80
2023,05,14,01,56,15.80
2023,05,14,01,57,15.80
2023,05,14,01,58,15.80
2023,05,14,01,59,15.80
2023,05,14,02,00,15.80
2023,05,14,02,01,15.90
2023,05,14,02,02,15.90
2023,05,14,02,03,15.90
2023,05,14,02,04,15.90
2023,05,14,02,05,15.90
2023,05,14,02,06,15.80
2023,05,14,02,07,15.80
2023,05,14,02,08,15.80
2023,05,14,02,09,15.80
2023,05,14,02,10,15.80
2023,05,14,02,11,15.80
2023,05,14,02,12,15.80
2023,05,14,02,13,15.80
2023,05,14,02,14,15.80
2023,05,14,02,15,15.80
2023,05,14,02,16,15.80
2023,05,14,02,17,15.80
2023,05,14,02,18,15.70
2023,05,14,02,19,15.70
2023,05,14,02,20,15.70
2023,05,14,02,21,15.70
2023,05,14,02,22,15.70
2023,05,14,02,23,15.70
2023,05,14,02,24,15.60
2023,05,14,02,25,15.60
2023,05,14,02,26,15.60
2023,05,14,02,27,15.60
2023,05,14,02,28,15.60
2023,05,14,02,29,15.60
2023,05,14,02,30,15.60
2023,05,14,02,31,15.70
2023,05,14,02,32,15.80
2023,05,14,02,33,15.90
2023,05,14,02,34,15.90
2023,05,14,02,35,16.00
2023,05,14,02,36,16.00
2023,05,14,02,37,16.10
2023,05,14,02,38,16.10
2023,05,14,02,39,16.10
2023,05,14,02,40,16.10
2023,05,14,02,41,16.10
2023,05,14,02,42,16.10
2023,05,14,02,43,16.10
2023,05,14,02,44,16.10
2023,05,14,02,45,16.10
2023,05,14,02,46,16.10
2023,05,14,02,47,16.10
2023,05,14,02,48,16.10
2023,05,14,02,49,16.10
2023,05,14,02,50,16.10
2023,05,14,02,51,16.10
2023,05,14,02,52,16.10
2023,05,14,02,53,16.10
2023,05,14,02,54,16.10
2023,05,14,02,55,16.10
2023,05,14,02,56,16.10
2023,05,14,02,57,16.10
2023,05,14,02,58,16.10
2023,05,14,02,59,16.00
2023,05,14,03,00,16.00
2023,05,14,03,01,16.00
2023,05,14,03,02,16.00
2023,05,14,03,03,16.00
2023,05,14,03,04,15.90
2023,05,14,03,05,15.90
2023,05,14,03,06,15.90
2023,05,14,03,07,15.80
2023,05,14,03,08,15.80
2023,05,14,03,09,15.80
2023,05,14,03,10,15.80
2023,05,14,03,11,15.80
2023,05,14,03,12,15.80
2023,05,14,03,13,15.80
2023,05,14,03,14,15.90
2023,05,14,03,15,15.90
2023,05,14,03,16,15.90
2023,05,14,03,17,15.90
2023,05,14,03,18,15.80
2023,05,14,03,19,15.80
2023,05,14,03,20,15.70
2023,05,14,03,21,15.70
2023,05,14,03,22,15.70
2023,05,14,03,23,15.80
2023,05,14,03,24,15.80
2023,05,14,03,25,15.80
2023,05,14,03,26,15.90
2023,05,14,03,27,15.90
2023,05,14,03,28,15.90
2023,05,14,03,29,15.90
2023,05,14,03,30,15.90
2023,05,14,03,31,15.90
2023,05,14,03,32,15.90
2023,05,14,03,33,16.00
2023,05,14,03,34,16.00
2023,05,14,03,35,16.20
2023,05,14,03,36,16.40
2023,05,14,03,37,16.70
2023,05,14,03,38,16.90
2023,05,14,03,39,17.20
2023,05,14,03,40,17.70
2023,05,14,03,41,18.30
2023,05,14,03,42,18.80
2023,05,14,03,43,19.10
2023,05,14,03,44,19.30
2023,05,14,03,45,19.40
2023,05,14,03,46,19.50
2023,05,14,03,47,19.50
2023,05,14,03,48,19.50
2023,05,14,03,49,19.60
2023,05,14,03,50,19.70
2023,05,14,03,51,19.80
2023,05,14,03,52,19.90
2023,05,14,03,53,20.00
2023,05,14,03,54,20.10
2023,05,14,03,55,20.20
2023,05,14,03,56,20.30
2023,05,14,03,57,20.40
2023,05,14,03,58,20.50
2023,05,14,03,59,20.50
2023,05,14,04,00,20.60
2023,05,14,04,01,20.60
2023,05,14,04,02,20.70
2023,05,14,04,03,20.70
2023,05,14,04,04,20.70
2023,05,14,04,08,20.70
2023,05,14,04,09,20.70
2023,05,14,04,10,20.60
2023,05,14,04,11,20.60
2023,05,14,04,12,20.60
2023,05,14,04,13,20.60
2023,05,14,04,14,20.60
2023,05,14,04,15,20.60
2023,05,14,04,16,20.60
2023,05,14,04,17,20.50
2023,05,14,04,18,20.50
2023,05,14,04,19,20.50
2023,05,14,04,20,20.40
2023,05,14,04,21,20.40
2023,05,14,04,22,20.40
2023,05,14,04,23,20.40
2023,05,14,04,24,20.50
2023,05,14,04,25,20.50
2023,05,14,04,26,20.50
2023,05,14,04,27,20.50
2023,05,14,04,28,20.50
2023,05,14,04,29,20.50
2023,05,14,04,30,20.50
2023,05,14,04,31,20.60
2023,05,14,04,32,20.60
2023,05,14,04,33,20.70
2023,05,14,04,34,20.80
2023,05,14,04,35,20.90
2023,05,14,04,36,21.00
2023,05,14,04,37,21.10
2023,05,14,04,38,21.20
2023,05,14,04,39,21.20
2023,05,14,04,40,21.30
2023,05,14,04,41,21.30
2023,05,14,04,42,21.40
2023,05,14,04,43,21.40
2023,05,14,04,44,21.30
2023,05,14,04,45,21.30
2023,05,14,04,46,21.30
2023,05,14,04,47,21.20
2023,05,14,04,48,21.20
2023,05,14,04,49,21.10
2023,05,14,04,50,21.10
2023,05,14,04,51,21.10
2023,05,14,04,52,21.00
2023,05,14,04,53,21.00
2023,05,14,04,54,21.00
2023,05,14,04,55,20.90
2023,05,14,04,56,20.90
2023,05,14,04,57,20.90
2023,05,14,04,58,20.80
2023,05,14,04,59,20.80
2023,05,14,05,00,20.70
2023,05,14,05,01,20.70
2023,05,14,05,02,20.70
2023,05,14,05,03,20.60
2023,05,14,05,04,20.60
2023,05,14,05,05,20.60
2023,05,14,05,06,20.50
2023,05,14,05,07,20.50
2023,05,14,05,08,20.50
2023,05,14,05,09,20.40
2023,05,14,05,10,20.40
2023,05,14,05,11,20.40
2023,05,14,05,12,20.40
2023,05,14,05,13,20.40
2023,05,14,05,14,20.40
2023,05,14,05,15,20.40
2023,05,14,05,16,20.40
2023,05,14,05,17,20.40
2023,05,14,05,18,20.40
2023,05,14,05,19,20.40
2023,05,14,05,20,20.40
2023,05,14,05,21,20.40
2023,05,14,05,22,20.40
2023,05,14,05,23,20.50
2023,05,14,05,24,20.50
2023,05,14,05,25,20.60
2023,05,14,05,26,20.60
2023,05,14,05,27,20.60
2023,05,14,05,28,20.70
2023,05,14,05,29,20.70
2023,05,14,05,30,20.70
2023,05,14,05,31,20.70
2023,05,14,05,32,20.70
2023,05,14,05,33,20.70
2023,05,14,05,34,20.70
2023,05,14,05,35,20.70
2023,05,14,05,36,20.70
2023,05,14,05,37,20.70
2023,05,14,05,38,20.70
2023,05,14,05,39,20.70
2023,05,14,05,40,20.70
2023,05,14,05,41,20.70
2023,05,14,05,42,20.70
2023,05,14,05,43,20.70
2023,05,14,05,44,20.70
2023,05,14,05,45,20.70
2023,05,14,05,46,20.70
2023,05,14,05,47,20.70
2023,05,14,05,48,20.70
2023,05,14,05,49,20.70
2023,05,14,05,50,20.70
2023,05,14,05,51,20.80
2023,05,14,05,52,20.80
2023,05,14,05,53,20.70
2023,05,14,05,54,20.70
2023,05,14,05,55,20.70
2023,05,14,05,56,20.70
2023,05,14,05,57,20.70
2023,05,14,05,58,20.70
2023,05,14,05,59,20.60
2023,05,14,06,00,20.60
2023,05,14,06,01,20.60
2023,05,14,06,02,20.60
2023,05,14,06,03,20.50
2023,05,14,06,04,20.50
2023,05,14,06,05,20.40
2023,05,14,06,06,20.40
2023,05,14,06,07,20.30
2023,05,14,06,08,20.30
2023,05,14,06,09,20.30
2023,05,14,06,10,20.30
2023,05,14,06,11,20.20
2023,05,14,06,12,20.20
2023,05,14,06,13,20.10
2023,05,14,06,14,20.10
2023,05,14,06,15,20.00
2023,05,14,06,16,20.00
2023,05,14,06,17,19.90
2023,05,14,06,18,19.90
2023,05,14,06,19,19.90
2023,05,14,06,20,19.80
2023,05,14,06,21,19.80
2023,05,14,06,22,19.80
2023,05,14,06,23,19.70
2023,05,14,06,24,19.70
2023,05,14,06,25,19.60
2023,05,14,06,26,19.60
2023,05,14,06,27,19.60
2023,05,14,06,28,19.50
2023,05,14,06,29,19.50
2023,05,14,06,30,19.40
2023,05,14,06,31,19.40
2023,05,14,06,32,19.40
2023,05,14,06,33,19.40
2023,05,14,06,34,19.40
2023,05,14,06,35,19.40
2023,05,14,06,36,19.40
2023,05,14,06,37,19.40
2023,05,14,06,38,19.30
2023,05,14,06,39,19.30
2023,05,14,06,40,19.30
2023,05,14,06,41,19.30
2023,05,14,06,42,19.30
2023,05,14,06,43,19.30
2023,05,14,06,44,19.40
2023,05,14,06,45,19.40
2023,05,14,06,46,19.40
2023,05,14,06,47,19.40
2023,05,14,06,48,19.50
2023,05,14,06,49,19.50
2023,05,14,06,50,19.60
2023,05,14,06,51,19.60
2023,05,14,06,52,19.70
2023,05,14,06,53,19.70
2023,05,14,06,54,19.70
2023,05,14,06,55,19.80
2023,05,14,06,56,19.80
2023,05,14,06,57,19.80
2023,05,14,06,58,19.90
2023,05,14,06,59,19.90
2023,05,14,07,00,19.90
2023,05,14,07,01,20.00
2023,05,14,07,02,20.10
2023,05,14,07,03,20.10
2023,05,14,07,04,20.20
2023,05,14,07,05,20.20
2023,05,14,07,06,20.20
2023,05,14,07,07,20.20
2023,05,14,07,08,20.30
2023,05,14,07,09,20.30
2023,05,14,07,10,20.30
2023,05,14,07,11,20.30
2023,05,14,07,12,20.30
2023,05,14,07,13,20.30
2023,05,14,07,14,20.30
2023,05,14,07,15,20.30
2023,05,14,07,16,20.30
2023,05,14,07,17,20.30
2023,05,14,07,18,20.30
2023,05,14,07,19,20.30
2023,05,14,07,20,20.30
2023,05,14,07,21,20.30
2023,05,14,07,22,20.30
2023,05,14,07,23,20.20
2023,05,14,07,24,20.20
2023,05,14,07,25,20.20
2023,05,14,07,26,20.20
2023,05,14,07,27,20.20
2023,05,14,07,28,20.30
2023,05,14,07,29,20.30
2023,05,14,07,30,20.30
2023,05,14,07,31,20.30
2023,05,14,07,32,20.40
2023,05,14,07,33,20.40
2023,05,14,07,34,20.40
2023,05,14,07,35,20.50
2023,05,14,07,36,20.50
2023,05,14,07,37,20.60
2023,05,14,07,38,20.60
2023,05,14,07,39,20.60
2023,05,14,07,40,20.60
2023,05,14,07,41,20.70
2023,05,14,07,42,20.70
2023,05,14,07,43,20.70
2023,05,14,07,44,20.80
2023,05,14,07,45,20.80
2023,05,14,07,46,20.90
2023,05,14,07,47,21.00
2023,05,14,07,48,21.10
2023,05,14,07,49,21.10
2023,05,14,07,50,21.10
2023,05,14,07,51,21.10
2023,05,14,07,52,21.10
2023,05,14,07,53,21.20
2023,05,14,07,54,21.20
2023,05,14,07,55,21.20
2023,05,14,07,56,21.30
2023,05,14,07,57,21.30
2023,05,14,07,58,21.30
2023,05,14,07,59,21.30
2023,05,14,08,00,21.30
2023,05,14,08,01,21.30
2023,05,14,08,02,21.30
2023,05,14,08,03,21.30
2023,05,14,08,04,21.30
2023,05,14,08,05,21.30
2023,05,14,08,06,21.40
2023,05,14,08,07,21.40
2023,05,14,08,08,21.50
2023,05,14,08,09,21.50
2023,05,14,08,10,21.60
2023,05,14,08,11,21.60
2023,05,14,08,12,21.70
2023,05,14,08,13,21.70
2023,05,14,08,14,21.80
2023,05,14,08,15,21.80
2023,05,14,08,16,21.90
2023,05,14,08,17,22.00
2023,05,14,08,18,22.10
2023,05,14,08,19,22.10
2023,05,14,08,20,22.10
2023,05,14,08,21,22.10
2023,05,14,08,22,22.10
2023,05,14,08,23,22.20
2023,05,14,08,24,22.20
2023,05,14,08,25,22.30
2023,05,14,08,26,22.30
2023,05,14,08,27,22.30
2023,05,14,08,28,22.40
2023,05,14,08,29,22.40
2023,05,14,08,30,22.40
2023,05,14,08,31,22.40
2023,05,14,08,32,22.40
2023,05,14,08,33,22.40
2023,05,14,08,34,22.40
2023,05,14,08,35,22.40
2023,05,14,08,36,22.30
2023,05,14,08,37,22.30
2023,05,14,08,38,22.30
2023,05,14,08,39,22.40
2023,05,14,08,40,22.40
2023,05,14,08,41,22.40
2023,05,14,08,42,22.50
2023,05,14,08,43,22.50
2023,05,14,08,44,22.50
2023,05,14,08,45,22.60
2023,05,14,08,46,22.60
2023,05,14,08,47,22.60
2023,05,14,08,48,22.70
2023,05,14,08,49,22.70
2023,05,14,08,50,22.80
2023,05,14,08,51,22.80
2023,05,14,08,52,22.80
2023,05,14,08,53,22.90
2023,05,14,08,54,22.90
2023,05,14,08,55,22.90
2023,05,14,08,56,22.90
2023,05,14,08,57,23.00
2023,05,14,08,58,23.00
2023,05,14,08,59,23.10
2023,05,14,09,00,23.10
2023,05,14,09,01,23.10
2023,05,14,09,02,23.20
2023,05,14,09,03,23.20
2023,05,14,09,04,23.20
2023,05,14,09,05,23.20
2023,05,14,09,06,23.20
2023,05,14,09,07,23.20
2023,05,14,09,08,23.20
2023,05,14,09,09,23.30
2023,05,14,09,10,23.40
2023,05,14,09,11,23.40
2023,05,14,09,12,23.50
2023,05,14,09,13,23.50
2023,05,14,09,14,23.60
2023,05,14,09,15,23.60
2023,05,14,09,16,23.60
2023,05,14,09,17,23.60
2023,05,14,09,18,23.60
2023,05,14,09,19,23.60
2023,05,14,09,20,23.60
2023,05,14,09,21,23.50
2023,05,14,09,22,23.50
2023,05,14,09,23,23.40
2023,05,14,09,24,23.40
2023,05,14,09,25,23.50
2023,05,14,09,26,23.50
2023,05,14,09,27,23.60
2023,05,14,09,28,23.60
2023,05,14,09,29,23.60
2023,05,14,09,30,23.60
2023,05,14,09,31,23.60
2023,05,14,09,32,23.60
2023,05,14,09,33,23.60
2023,05,14,09,34,23.50
2023,05,14,09,35,23.50
2023,05,14,09,36,23.50
2023,05,14,09,37,23.60
2023,05,14,09,38,23.60
2023,05,14,09,39,23.60
2023,05,14,09,40,23.60
2023,05,14,09,41,23.70
2023,05,14,09,42,23.70
2023,05,14,09,43,23.70
2023,05,14,09,44,23.70
2023,05,14,09,45,23.70
2023,05,14,09,46,23.60
2023,05,14,09,47,23.60
2023,05,14,09,48,23.60
2023,05,14,09,49,23.60
2023,05,14,09,50,23.60
2023,05,14,09,51,23.60
2023,05,14,09,52,23.70
2023,05,14,09,53,23.70
2023,05,14,09,54,23.70
2023,05,14,09,55,23.80
2023,05,14,09,56,23.80
2023,05,14,09,57,23.80
2023,05,14,09,58,23.70
2023,05,14,09,59,23.70
2023,05,14,10,00,23.70
2023,05,14,10,01,23.80
2023,05,14,10,02,23.80
2023,05,14,10,03,23.80
2023,05,14,10,04,23.80
2023,05,14,10,05,23.90
2023,05,14,10,06,23.90
2023,05,14,10,07,23.90
2023,05,14,10,08,24.00
2023,05,14,10,09,24.00
2023,05,14,10,10,24.10
2023,05,14,10,11,24.20
2023,05,14,10,12,24.20
2023,05,14,10,13,24.20
2023,05,14,10,14,24.30
2023,05,14,10,15,24.30
2023,05,14,10,16,24.30
2023,05,14,10,17,24.30
2023,05,14,10,18,24.30
2023,05,14,10,19,24.30
2023,05,14,10,20,24.30
2023,05,14,10,21,24.30
2023,05,14,10,22,24.30
2023,05,14,10,23,24.40
2023,05,14,10,24,24.50
2023,05,14,10,25,24.60
2023,05,14,10,26,24.70
2023,05,14,10,27,24.70
2023,05,14,10,28,24.70
2023,05,14,10,29,24.80
2023,05,14,10,30,24.80
2023,05,14,10,31,24.80
2023,05,14,10,32,24.80
2023,05,14,10,33,24.80
2023,05,14,10,34,24.90
2023,05,14,10,35,24.90
2023,05,14,10,36,25.00
2023,05,14,10,37,25.00
2023,05,14,10,38,25.00
2023,05,14,10,39,25.00
2023,05,14,10,40,24.90
2023,05,14,10,41,24.80
2023,05,14,10,42,24.70
2023,05,14,10,43,24.70
2023,05,14,10,44,24.70
2023,05,14,10,45,24.70
2023,05,14,10,46,24.70
2023,05,14,10,47,24.70
2023,05,14,10,48,24.70
2023,05,14,10,49,24.70
2023,05,14,10,50,24.70
2023,05,14,10,51,24.80
2023,05,14,10,52,24.80
2023,05,14,10,53,24.80
2023,05,14,10,54,24.80
2023,05,14,10,55,24.70
2023,05,14,10,56,24.70
2023,05,14,10,57,24.70
2023,05,14,10,58,24.70
2023,05,14,10,59,24.70
2023,05,14,11,00,24.70
2023,05,14,11,01,24.70
2023,05,14,11,02,24.70
2023,05,14,11,03,24.80
2023,05,14,11,04,24.80
2023,05,14,11,05,24.90
2023,05,14,11,06,24.90
2023,05,14,11,07,24.80
2023,05,14,11,08,24.80
2023,05,14,11,09,24.70
2023,05,14,11,10,24.70
2023,05,14,11,11,24.60
2023,05,14,11,12,24.60
2023,05,14,11,13,24.50
2023,05,14,11,14,24.50
2023,05,14,11,15,24.40
2023,05,14,11,16,24.40
2023,05,14,11,17,24.50
2023,05,14,11,18,24.60
2023,05,14,11,19,24.70
2023,05,14,11,20,24.80
2023,05,14,11,21,24.80
2023,05,14,11,22,24.80
2023,05,14,11,23,24.80
2023,05,14,11,24,24.70
2023,05,14,11,25,24.70
2023,05,14,11,26,24.70
2023,05,14,11,27,24.70
2023,05,14,11,28,24.70
2023,05,14,11,29,24.70
2023,05,14,11,30,24.60
2023,05,14,11,31,24.60
2023,05,14,11,32,24.50
2023,05,14,11,33,24.50
2023,05,14,11,34,24.50
2023,05,14,11,35,24.40
2023,05,14,11,36,24.40
2023,05,14,11,37,24.50
2023,05,14,11,38,24.60
2023,05,14,11,39,24.60
2023,05,14,11,40,24.60
2023,05,14,11,41,24.60
2023,05,14,11,42,24.60
2023,05,14,11,43,24.50
2023,05,14,11,44,24.50
2023,05,14,11,45,24.60
2023,05,14,11,46,24.70
2023,05,14,11,47,24.80
2023,05,14,11,48,24.80
2023,05,14,11,49,24.90
2023,05,14,11,50,24.90
2023,05,14,11,51,24.90
2023,05,14,11,52,25.00
2023,05,14,11,53,25.20
2023,05,14,11,54,25.30
2023,05,14,11,55,25.40
2023,05,14,11,56,25.40
2023,05,14,11,57,25.50
2023,05,14,11,58,25.50
2023,05,14,11,59,25.40
2023,05,14,12,00,25.40
2023,05,14,12,01,25.40
2023,05,14,12,02,25.40
2023,05,14,12,03,25.40
2023,05,14,12,04,25.30
2023,05,14,12,05,25.30
2023,05,14,12,06,25.20
2023,05,14,12,07,25.20
2023,05,14,12,08,25.20
2023,05,14,12,09,25.20
2023,05,14,12,10,25.20
2023,05,14,12,11,25.20
2023,05,14,12,12,25.30
2023,05,14,12,13,25.40
2023,05,14,12,14,25.50
2023,05,14,12,15,25.60
2023,05,14,12,16,25.60
2023,05,14,12,17,25.60
2023,05,14,12,18,25.50
2023,05,14,12,19,25.50
2023,05,14,12,20,25.50
2023,05,14,12,21,25.60
2023,05,14,12,22,25.70
2023,05,14,12,23,25.80
2023,05,14,12,24,26.00
2023,05,14,12,25,26.10
2023,05,14,12,26,26.20
2023,05,14,12,27,26.20
2023,05,14,12,28,26.20
2023,05,14,12,29,26.30
2023,05,14,12,30,26.30
2023,05,14,12,31,26.20
2023,05,14,12,32,26.20
2023,05,14,12,33,26.20
2023,05,14,12,34,26.20
2023,05,14,12,35,26.20
2023,05,14,12,36,26.20
2023,05,14,12,37,26.20
2023,05,14,12,38,26.10
2023,05,14,12,39,26.10
2023,05,14,12,40,26.10
2023,05,14,12,41,26.20
2023,05,14,12,42,26.30
2023,05,14,12,43,26.40
2023,05,14,12,44,26.60
2023,05,14,12,45,26.70
2023,05,14,12,46,26.70
2023,05,14,12,47,26.80
2023,05,14,12,48,26.80
2023,05,14,12,49,26.80
2023,05,14,12,50,26.80
2023,05,14,12,51,26.70
2023,05,14,12,52,26.70
2023,05,14,12,53,26.70
2023,05,14,12,54,26.80
2023,05,14,12,55,26.90
2023,05,14,12,56,27.10
2023,05,14,12,57,27.20
2023,05,14,12,58,27.20
2023,05,14,12,59,27.20
2023,05,14,13,00,27.20
2023,05,14,13,01,27.10
2023,05,14,13,02,27.10
2023,05,14,13,03,26.90
2023,05,14,13,04,26.80
2023,05,14,13,05,26.80
2023,05,14,13,06,26.70
2023,05,14,13,07,26.70
2023,05,14,13,08,26.80
2023,05,14,13,09,26.80
2023,05,14,13,10,26.90
2023,05,14,13,11,26.90
2023,05,14,13,12,26.90
2023,05,14,13,13,26.90
2023,05,14,13,14,26.90
2023,05,14,13,15,26.80
2023,05,14,13,16,26.80
2023,05,14,13,17,26.80
2023,05,14,13,18,26.80
2023,05,14,13,19,26.70
2023,05,14,13,20,26.70
2023,05,14,13,21,26.70
2023,05,14,13,22,26.70
2023,05,14,13,23,26.70
2023,05,14,13,24,26.60
2023,05,14,13,25,26.60
2023,05,14,13,26,26.60
2023,05,14,13,27,26.60
2023,05,14,13,28,26.70
2023,05,14,13,29,26.70
2023,05,14,13,30,26.70
2023,05,14,13,31,26.80
2023,05,14,13,32,26.80
2023,05,14,13,33,27.00
2023,05,14,13,34,27.10
2023,05,14,13,35,27.30
2023,05,14,13,36,27.40
2023,05,14,13,37,27.50
2023,05,14,13,38,27.60
2023,05,14,13,39,27.50
2023,05,14,13,40,27.30
2023,05,14,13,41,27.30
2023,05,14,13,42,27.20
2023,05,14,13,43,27.20
2023,05,14,13,44,27.20
2023,05,14,13,45,27.20
2023,05,14,13,46,27.20
2023,05,14,13,47,27.10
2023,05,14,13,48,27.20
2023,05,14,13,49,27.20
2023,05,14,13,50,27.30
2023,05,14,13,51,27.30
2023,05,14,13,52,27.30
2023,05,14,13,53,27.30
2023,05,14,13,54,27.30
2023,05,14,13,55,27.30
2023,05,14,13,56,27.30
2023,05,14,13,57,27.30
2023,05,14,13,58,27.30
2023,05,14,13,59,27.30
2023,05,14,14,00,27.40
2023,05,14,14,01,27.50
2023,05,14,14,02,27.60
2023,05,14,14,03,27.70
2023,05,14,14,04,27.70
2023,05,14,14,05,27.70
2023,05,14,14,06,27.60
2023,05,14,14,07,27.50
2023,05,14,14,08,27.50
2023,05,14,14,09,27.40
2023,05,14,14,10,27.40
2023,05,14,14,11,27.50
2023,05,14,14,12,27.50
2023,05,14,14,13,27.60
2023,05,14,14,14,27.60
2023,05,14,14,15,27.70
2023,05,14,14,16,27.70
2023,05,14,14,17,27.70
2023,05,14,14,18,27.70
2023,05,14,14,19,27.80
2023,05,14,14,20,27.80
2023,05,14,14,21,27.80
2023,05,14,14,22,27.80
2023,05,14,14,23,27.80
2023,05,14,14,24,27.80
2023,05,14,14,25,27.80
2023,05,14,14,26,27.70
2023,05,14,14,27,27.80
2023,05,14,14,28,27.90
2023,05,14,14,29,27.90
2023,05,14,14,30,27.90
2023,05,14,14,31,28.00
2023,05,14,14,32,28.00
2023,05,14,14,33,28.00
2023,05,14,14,34,28.00
2023,05,14,14,35,27.90
2023,05,14,14,36,27.90
2023,05,14,14,37,28.00
2023,05,14,14,38,28.00
2023,05,14,14,39,28.10
2023,05,14,14,40,28.10
2023,05,14,14,41,28.20
2023,05,14,14,42,28.10
2023,05,14,14,43,28.10
2023,05,14,14,44,28.00
2023,05,14,14,45,27.90
2023,05,14,14,46,27.90
2023,05,14,14,47,27.90
2023,05,14,14,48,28.00
2023,05,14,14,49,28.00
2023,05,14,14,50,28.10
2023,05,14,14,51,28.10
2023,05,14,14,52,28.10
2023,05,14,14,53,28.20
2023,05,14,14,54,28.30
2023,05,14,14,55,28.40
2023,05,14,14,56,28.50
2023,05,14,14,57,28.60
2023,05,14,14,58,28.60
2023,05,14,14,59,28.60
2023,05,14,15,00,28.60
2023,05,14,15,01,28.60
2023,05,14,15,02,28.60
2023,05,14,15,03,28.70
2023,05,14,15,04,28.80
2023,05,14,15,05,28.90
2023,05,14,15,06,28.90
2023,05,14,15,07,28.90
2023,05,14,15,08,29.00
2023,05,14,15,09,29.00
2023,05,14,15,10,29.10
2023,05,14,15,11,29.20
2023,05,14,15,12,29.30
2023,05,14,15,13,29.30
2023,05,14,15,14,29.30
2023,05,14,15,15,29.30
2023,05,14,15,16,29.30
2023,05,14,15,17,29.20
2023,05,14,15,18,29.30
2023,05,14,15,19,29.30
2023,05,14,15,20,29.40
2023,05,14,15,21,29.40
2023,05,14,15,22,29.50
2023,05,14,15,23,29.60
2023,05,14,15,24,29.60
2023,05,14,15,25,29.60
2023,05,14,15,26,29.50
2023,05,14,15,27,29.50
2023,05,14,15,28,29.50
2023,05,14,15,29,29.60
2023,05,14,15,30,29.60
2023,05,14,15,31,29.70
2023,05,14,15,32,29.80
2023,05,14,15,33,29.90
2023,05,14,15,34,29.90
2023,05,14,15,35,29.90
2023,05,14,15,36,29.80
2023,05,14,15,37,29.80
2023,05,14,15,38,29.80
2023,05,14,15,39,29.80
2023,05,14,15,40,29.70
2023,05,14,15,41,29.70
2023,05,14,15,42,29.70
2023,05,14,15,43,29.80
2023,05,14,15,44,29.80
2023,05,14,15,45,29.80
2023,05,14,15,46,29.90
2023,05,14,15,47,30.00
2023,05,14,15,48,30.10
2023,05,14,15,49,30.10
2023,05,14,15,50,30.10
2023,05,14,15,51,30.00
2023,05,14,15,52,29.90
2023,05,14,15,53,29.80
2023,05,14,15,54,29.80
2023,05,14,15,55,29.80
2023,05,14,15,56,29.70
2023,05,14,15,57,29.70
2023,05,14,15,58,29.60
2023,05,14,15,59,29.50
2023,05,14,16,00,29.40
2023,05,14,16,01,29.30
2023,05,14,16,02,29.30
2023,05,14,16,03,29.30
2023,05,14,16,04,29.40
2023,05,14,16,05,29.40
2023,05,14,16,06,29.40
2023,05,14,16,07,29.40
2023,05,14,16,08,29.50
2023,05,14,16,09,29.50
2023,05,14,16,10,29.60
2023,05,14,16,11,29.60
2023,05,14,16,12,29.60
2023,05,14,16,13,29.50
2023,05,14,16,14,29.50
2023,05,14,16,15,29.50
2023,05,14,16,16,29.60
2023,05,14,16,17,29.60
2023,05,14,16,18,29.60
2023,05,14,16,19,29.70
2023,05,14,16,20,29.70
2023,05,14,16,21,29.80
2023,05,14,16,22,29.80
2023,05,14,16,23,29.80
2023,05,14,16,24,29.80
2023,05,14,16,25,29.90
2023,05,14,16,26,30.00
2023,05,14,16,27,30.10
2023,05,14,16,28,30.20
2023,05,14,16,29,30.20
2023,05,14,16,30,30.20
2023,05,14,16,31,30.20
2023,05,14,16,32,30.20
2023,05,14,16,33,30.20
2023,05,14,16,34,30.20
2023,05,14,16,35,30.20
2023,05,14,16,36,30.30
2023,05,14,16,37,30.40
2023,05,14,16,38,30.40
2023,05,14,16,39,30.40
2023,05,14,16,40,30.50
2023,05,14,16,41,30.50
2023,05,14,16,42,30.50
2023,05,14,16,43,30.50
2023,05,14,16,44,30.50
2023,05,14,16,45,30.40
2023,05,14,16,46,30.40
2023,05,14,16,47,30.40
2023,05,14,16,48,30.40
2023,05,14,16,49,30.40
2023,05,14,16,50,30.40
2023,05,14,16,51,30.50
2023,05,14,16,52,30.50
2023,05,14,16,53,30.50
2023,05,14,16,54,30.50
2023,05,14,16,55,30.60
2023,05,14,16,56,30.60
2023,05,14,16,57,30.70
2023,05,14,16,58,30.80
2023,05,14,16,59,30.90
2023,05,14,17,00,30.90
2023,05,14,17,01,31.00
2023,05,14,17,02,31.00
2023,05,14,17,03,30.90
2023,05,14,17,04,30.90
2023,05,14,17,05,30.80
2023,05,14,17,06,30.90
2023,05,14,17,07,30.90
2023,05,14,17,08,31.00
2023,05,14,17,09,31.00
2023,05,14,17,10,31.10
2023,05,14,17,11,31.10
2023,05,14,17,12,31.10
2023,05,14,17,13,31.20
2023,05,14,17,14,31.20
2023,05,14,17,15,31.20
2023,05,14,17,16,31.20
2023,05,14,17,17,31.20
2023,05,14,17,18,31.20
2023,05,14,17,19,31.20
2023,05,14,17,20,31.30
2023,05,14,17,21,31.30
2023,05,14,17,22,31.30